contact:dominique.lefevre@mio.osupytheas.fr, maurice.libes@osupytheas.fr, didier.mallarino@osupytheas.fr
Project:EMSO http://www.emso-fr.org/EMSO-France
Depth: 2436.0 m
Title:EMSO Ligure Ouest : Data MII capteur AQUADOPP
Date,Latitude,Longitude,X_East,Y_North,Z_Up,Amplitude_X,Amplitude_Y,Amplitude_Z,Batterie,SoundSpeed,Heading,Pitch,Roll,Pressure,TIS,Speed,Direction
, degrees North, degrees East, m.s-1, m.s-1,m.s-1, 1, 1, 1, Volt, m.s-1, degree, degree, degree, dbar, degree_C, m.s-1, degree
2019-06-24T00:09:04,42.805,6.029,-0.041,-0.022,-0.05,103.0,106.0,100.0,13.4,1505.2,324.6,-0.8,1.8,2470.309,13.29,0.046,241.8
2019-06-24T00:12:05,42.805,6.029,-0.021,-0.017,-0.039,103.0,107.0,99.0,13.4,1505.2,328.4,-0.7,1.9,2470.263,13.3,0.027,231.0
2019-06-24T00:15:06,42.805,6.029,0.018,-0.026,-0.009,103.0,107.0,99.0,13.3,1505.3,327.0,-0.7,1.8,2470.259,13.31,0.031,145.3
2019-06-24T00:18:07,42.805,6.029,-0.011,-0.013,-0.022,100.0,107.0,98.0,13.4,1505.3,328.4,-0.7,1.8,2470.268,13.32,0.017,220.2
2019-06-24T00:21:08,42.805,6.029,0.023,-0.029,-0.017,102.0,106.0,100.0,13.3,1505.3,323.6,-0.7,1.8,2470.254,13.32,0.037,141.6
2019-06-24T00:24:09,42.805,6.029,-0.004,-0.022,-0.036,101.0,106.0,99.0,13.4,1505.3,324.2,-0.7,1.8,2470.255,13.32,0.022,190.3
2019-06-24T00:27:10,42.805,6.029,0.011,-0.02,0.004,103.0,107.0,98.0,13.3,1505.3,327.1,-0.8,1.8,2470.215,13.33,0.022,151.2
2019-06-24T00:30:11,42.805,6.029,0.004,0.0,-0.029,102.0,107.0,98.0,13.3,1505.3,323.8,-0.7,1.8,2470.179,13.33,0.004,90.0
2019-06-24T00:33:12,42.805,6.029,-0.01,-0.032,-0.08,100.0,105.0,98.0,13.3,1505.3,325.8,-0.7,1.8,2470.229,13.33,0.033,197.4
2019-06-24T00:36:13,42.805,6.029,-0.008,-0.009,-0.019,102.0,108.0,100.0,13.3,1505.3,323.7,-0.7,1.8,2470.219,13.33,0.012,221.6
2019-06-24T00:39:14,42.805,6.029,0.005,-0.009,-0.011,105.0,106.0,98.0,13.4,1505.3,326.4,-0.7,1.8,2470.21,13.33,0.01,150.9
2019-06-24T00:42:15,42.805,6.029,-0.014,0.003,-0.038,102.0,106.0,97.0,13.4,1505.3,324.2,-0.7,1.8,2470.273,13.33,0.014,282.1
2019-06-24T00:45:16,42.805,6.029,0.006,-0.017,0.001,100.0,107.0,98.0,13.4,1505.3,326.8,-0.7,1.9,2470.232,13.33,0.018,160.6
2019-06-24T00:48:17,42.805,6.029,-0.019,0.019,0.002,101.0,105.0,99.0,13.3,1505.3,325.0,-0.7,1.8,2470.192,13.33,0.026,315.0
2019-06-24T00:51:18,42.805,6.029,-0.012,-0.018,-0.058,100.0,107.0,98.0,13.3,1505.3,324.5,-0.8,1.8,2470.232,13.33,0.021,213.7
2019-06-24T00:54:19,42.805,6.029,0.007,0.007,-0.067,100.0,104.0,98.0,13.4,1505.3,326.6,-0.8,1.8,2470.181,13.33,0.009,45.0
2019-06-24T00:57:20,42.805,6.029,-0.006,-0.029,-0.041,101.0,106.0,99.0,13.4,1505.3,325.1,-0.7,1.9,2470.204,13.33,0.029,191.7
2019-06-24T01:00:21,42.805,6.029,-0.008,-0.012,-0.016,105.0,107.0,98.0,13.4,1505.3,326.0,-0.7,1.8,2470.238,13.33,0.014,213.7
2019-06-24T01:03:22,42.805,6.029,-0.025,-0.041,-0.067,101.0,107.0,99.0,13.3,1505.3,325.3,-0.7,1.9,2470.212,13.33,0.048,211.4
2019-06-24T01:06:23,42.805,6.029,-0.05,-0.024,-0.072,101.0,105.0,98.0,13.3,1505.3,325.5,-0.7,1.9,2470.213,13.33,0.055,244.4
2019-06-24T01:09:24,42.805,6.029,0.045,-0.01,0.033,101.0,106.0,100.0,13.4,1505.3,327.2,-0.7,1.8,2470.208,13.33,0.046,102.5
2019-06-24T01:12:25,42.805,6.029,0.01,-0.007,-0.008,102.0,108.0,99.0,13.3,1505.3,324.1,-0.7,1.9,2470.201,13.33,0.012,125.0
2019-06-24T01:15:26,42.805,6.029,0.05,-0.017,0.003,102.0,108.0,99.0,13.3,1505.3,324.9,-0.8,1.8,2470.185,13.33,0.052,108.8
2019-06-24T01:18:27,42.805,6.029,0.04,0.004,0.016,102.0,108.0,98.0,13.3,1505.3,325.1,-0.7,1.8,2470.203,13.33,0.04,84.3
2019-06-24T01:21:28,42.805,6.029,0.032,-0.008,0.023,102.0,107.0,98.0,13.4,1505.3,327.6,-0.8,1.9,2470.191,13.33,0.032,104.0
2019-06-24T01:24:29,42.805,6.029,0.026,-0.007,-0.01,101.0,107.0,101.0,13.3,1505.3,325.5,-0.7,1.8,2470.199,13.33,0.026,105.1
2019-06-24T01:27:30,42.805,6.029,0.04,0.009,0.036,101.0,108.0,98.0,13.4,1505.3,327.0,-0.7,1.8,2470.217,13.33,0.041,77.3
2019-06-24T01:30:31,42.805,6.029,-0.03,-0.012,-0.056,102.0,105.0,98.0,13.3,1505.3,326.4,-0.7,1.8,2470.179,13.33,0.032,248.2
2019-06-24T01:33:32,42.805,6.029,0.016,-0.003,-0.009,102.0,107.0,98.0,13.3,1505.3,323.3,-0.7,1.8,2470.19,13.33,0.016,100.6
2019-06-24T01:36:33,42.805,6.029,0.002,-0.014,-0.032,103.0,106.0,98.0,13.3,1505.3,324.4,-0.8,1.8,2470.181,13.33,0.014,171.9
2019-06-24T01:39:34,42.805,6.029,0.04,-0.019,-0.008,102.0,105.0,99.0,13.4,1505.3,327.7,-0.7,1.9,2470.185,13.33,0.044,115.4
2019-06-24T01:42:35,42.805,6.029,0.015,-0.021,-0.02,100.0,106.0,99.0,13.4,1505.3,326.1,-0.7,1.8,2470.184,13.33,0.025,144.5
2019-06-24T01:45:36,42.805,6.029,0.032,-0.012,0.004,102.0,106.0,99.0,13.4,1505.3,326.8,-0.7,1.8,2470.14,13.33,0.034,110.6
2019-06-24T01:48:37,42.805,6.029,0.037,-0.005,0.011,102.0,107.0,99.0,13.4,1505.3,324.7,-0.7,1.8,2470.161,13.33,0.037,97.7
2019-06-24T01:51:38,42.805,6.029,0.023,-0.025,0.005,102.0,107.0,98.0,13.4,1505.3,326.0,-0.7,1.8,2470.203,13.33,0.033,137.4
2019-06-24T01:54:39,42.805,6.029,0.026,0.001,0.006,101.0,107.0,99.0,13.4,1505.3,325.0,-0.7,1.9,2470.183,13.33,0.026,87.8
2019-06-24T01:57:40,42.805,6.029,-0.027,0.004,-0.048,103.0,108.0,99.0,13.3,1505.3,328.3,-0.7,1.8,2470.18,13.33,0.027,278.4
2019-06-24T02:00:41,42.805,6.029,-0.004,-0.002,-0.036,100.0,106.0,99.0,13.4,1505.3,326.9,-0.7,1.9,2470.171,13.33,0.004,243.4
2019-06-24T02:03:42,42.805,6.029,0.03,-0.006,0.001,102.0,106.0,98.0,13.4,1505.3,325.6,-0.7,1.9,2470.163,13.33,0.03,101.3
2019-06-24T02:06:43,42.805,6.029,-0.016,-0.028,-0.03,100.0,107.0,101.0,13.3,1505.3,323.9,-0.7,1.8,2470.212,13.33,0.032,209.7
2019-06-24T02:09:44,42.805,6.029,0.032,-0.015,-0.013,102.0,108.0,100.0,13.4,1505.3,325.1,-0.8,1.8,2470.197,13.33,0.035,115.1
2019-06-24T02:12:45,42.805,6.029,-0.012,-0.005,-0.027,102.0,108.0,100.0,13.4,1505.3,328.1,-0.7,1.9,2470.178,13.33,0.013,247.4
2019-06-24T02:15:46,42.805,6.029,-0.009,-0.004,-0.049,103.0,107.0,97.0,13.4,1505.3,326.5,-0.7,1.8,2470.183,13.33,0.009,246.0
2019-06-24T02:18:47,42.805,6.029,0.025,0.005,-0.001,102.0,107.0,99.0,13.4,1505.3,325.3,-0.7,1.8,2470.155,13.33,0.025,78.7
2019-06-24T02:21:48,42.805,6.029,0.033,-0.018,0.005,102.0,107.0,99.0,13.4,1505.3,323.6,-0.7,1.9,2470.191,13.33,0.037,118.6
2019-06-24T02:24:49,42.805,6.029,0.013,-0.013,-0.016,104.0,106.0,99.0,13.4,1505.3,325.6,-0.8,1.8,2470.129,13.33,0.018,135.0
2019-06-24T02:27:50,42.805,6.029,0.007,0.01,-0.031,102.0,107.0,98.0,13.4,1505.3,326.6,-0.7,1.9,2470.153,13.33,0.012,35.0
2019-06-24T02:30:51,42.805,6.029,-0.031,-0.008,-0.05,103.0,106.0,101.0,13.4,1505.3,325.3,-0.7,1.9,2470.137,13.33,0.032,255.5
2019-06-24T02:33:52,42.805,6.029,0.024,-0.006,0.015,104.0,108.0,99.0,13.4,1505.3,326.4,-0.7,1.8,2470.119,13.33,0.024,104.0
2019-06-24T02:36:53,42.805,6.029,0.007,-0.019,-0.007,103.0,108.0,100.0,13.3,1505.3,324.5,-0.7,1.9,2470.12,13.33,0.02,159.8
2019-06-24T02:39:54,42.805,6.029,-0.003,-0.019,-0.02,104.0,109.0,99.0,13.4,1505.3,324.1,-0.8,1.8,2470.161,13.33,0.019,189.0
2019-06-24T02:42:55,42.805,6.029,0.008,-0.024,-0.036,105.0,109.0,100.0,13.4,1505.3,324.3,-0.7,1.8,2470.173,13.33,0.025,161.6
2019-06-24T02:45:56,42.805,6.029,0.016,-0.001,0.012,103.0,109.0,100.0,13.4,1505.3,328.1,-0.7,1.8,2470.14,13.33,0.016,93.6
2019-06-24T02:48:57,42.805,6.029,-0.002,-0.016,-0.032,104.0,108.0,101.0,13.4,1505.3,326.6,-0.7,1.8,2470.174,13.33,0.016,187.1
2019-06-24T02:51:58,42.805,6.029,0.022,-0.034,-0.002,104.0,108.0,101.0,13.4,1505.3,324.4,-0.7,1.9,2470.14,13.33,0.04,147.1
2019-06-24T02:54:59,42.805,6.029,-0.027,-0.017,-0.028,105.0,108.0,101.0,13.4,1505.3,325.3,-0.7,1.9,2470.134,13.33,0.031,237.8
2019-06-24T02:58:00,42.805,6.029,-0.007,-0.01,0.007,104.0,108.0,101.0,13.4,1505.3,328.2,-0.7,1.8,2470.13,13.33,0.012,215.0
2019-06-24T03:01:01,42.805,6.029,0.003,-0.024,-0.006,103.0,108.0,101.0,13.4,1505.3,326.0,-0.8,1.8,2470.12,13.33,0.024,172.9
2019-06-24T03:04:02,42.805,6.029,-0.004,-0.026,-0.021,104.0,108.0,100.0,13.3,1505.3,327.7,-0.8,1.8,2470.164,13.33,0.026,188.7
2019-06-24T03:07:03,42.805,6.029,-0.024,-0.008,-0.054,103.0,108.0,101.0,13.4,1505.3,326.4,-0.8,1.9,2470.117,13.33,0.025,251.6
2019-06-24T03:10:04,42.805,6.029,-0.007,-0.012,-0.045,105.0,107.0,101.0,13.4,1505.3,327.7,-0.8,1.9,2470.147,13.33,0.013,210.3
2019-06-24T03:13:05,42.805,6.029,0.027,0.001,-0.022,104.0,107.0,100.0,13.3,1505.3,323.4,-0.7,1.8,2470.094,13.33,0.027,87.9
2019-06-24T03:16:06,42.805,6.029,0.011,-0.043,-0.011,103.0,108.0,100.0,13.3,1505.3,324.5,-0.8,1.8,2470.156,13.33,0.044,165.7
2019-06-24T03:19:07,42.805,6.029,0.013,0.003,-0.013,103.0,110.0,100.0,13.4,1505.3,324.0,-0.7,1.8,2470.165,13.33,0.013,77.0
2019-06-24T03:22:08,42.805,6.029,0.001,-0.019,-0.029,105.0,109.0,100.0,13.4,1505.3,326.4,-0.8,1.8,2470.191,13.33,0.019,177.0
2019-06-24T03:25:09,42.805,6.029,0.017,-0.025,-0.023,104.0,110.0,102.0,13.3,1505.3,328.3,-0.7,1.8,2470.182,13.33,0.03,145.8
2019-06-24T03:28:10,42.805,6.029,-0.012,-0.006,-0.012,105.0,108.0,101.0,13.4,1505.3,327.7,-0.8,1.9,2470.16,13.33,0.013,243.4
2019-06-24T03:31:11,42.805,6.029,-0.009,-0.012,-0.023,104.0,108.0,101.0,13.3,1505.3,326.7,-0.7,1.8,2470.13,13.33,0.015,216.9
2019-06-24T03:34:12,42.805,6.029,-0.017,-0.013,-0.046,103.0,109.0,100.0,13.3,1505.3,328.3,-0.7,1.9,2470.179,13.33,0.021,232.6
2019-06-24T03:37:13,42.805,6.029,-0.025,-0.018,-0.055,104.0,107.0,99.0,13.4,1505.3,324.0,-0.7,1.9,2470.138,13.33,0.03,234.2
2019-06-24T03:40:14,42.805,6.029,0.002,-0.009,0.002,106.0,107.0,100.0,13.4,1505.3,326.0,-0.7,1.8,2470.136,13.33,0.009,167.5
2019-06-24T03:43:15,42.805,6.029,-0.033,-0.024,-0.05,104.0,108.0,101.0,13.3,1505.3,327.5,-0.7,1.9,2470.112,13.33,0.04,234.0
2019-06-24T03:46:16,42.805,6.029,-0.014,-0.016,-0.025,104.0,109.0,101.0,13.3,1505.3,323.4,-0.8,1.8,2470.179,13.33,0.021,221.2
2019-06-24T03:49:17,42.805,6.029,-0.009,-0.002,-0.004,104.0,109.0,101.0,13.3,1505.3,326.3,-0.7,1.8,2470.144,13.33,0.009,257.5
2019-06-24T03:52:18,42.805,6.029,-0.004,-0.022,-0.042,104.0,109.0,101.0,13.4,1505.3,325.2,-0.7,1.9,2470.163,13.33,0.022,190.3
2019-06-24T03:55:19,42.805,6.029,0.0,-0.008,-0.022,105.0,109.0,100.0,13.4,1505.3,323.3,-0.7,1.8,2470.13,13.33,0.008,180.0
2019-06-24T03:58:20,42.805,6.029,0.008,-0.005,-0.042,105.0,109.0,101.0,13.4,1505.3,324.6,-0.7,1.9,2470.099,13.33,0.009,122.0
2019-06-24T04:01:21,42.805,6.029,0.007,-0.015,-0.035,103.0,107.0,101.0,13.4,1505.3,326.4,-0.7,1.8,2470.141,13.33,0.016,155.0
2019-06-24T04:04:22,42.805,6.029,0.001,-0.004,-0.035,104.0,107.0,99.0,13.4,1505.3,326.9,-0.7,1.9,2470.15,13.33,0.004,166.0
2019-06-24T04:07:23,42.805,6.029,0.022,0.0,-0.003,104.0,109.0,100.0,13.4,1505.3,326.9,-0.7,1.8,2470.147,13.33,0.022,90.0
2019-06-24T04:10:24,42.805,6.029,0.004,-0.005,-0.038,104.0,107.0,100.0,13.3,1505.3,326.3,-0.8,1.9,2470.06,13.33,0.006,141.3
2019-06-24T04:13:25,42.805,6.029,0.024,-0.003,-0.016,105.0,108.0,101.0,13.4,1505.3,327.8,-0.7,1.8,2470.128,13.33,0.024,97.1
2019-06-24T04:16:26,42.805,6.029,-0.015,-0.013,-0.05,104.0,106.0,100.0,13.3,1505.3,324.1,-0.7,1.9,2470.168,13.33,0.019,229.1
2019-06-24T04:19:27,42.805,6.029,0.02,0.003,0.013,104.0,108.0,100.0,13.4,1505.3,324.9,-0.7,1.8,2470.09,13.33,0.02,81.5
2019-06-24T04:22:28,42.805,6.029,0.031,-0.005,0.013,104.0,108.0,101.0,13.4,1505.3,327.5,-0.7,1.8,2470.112,13.33,0.031,99.2
2019-06-24T04:25:29,42.805,6.029,-0.006,-0.024,-0.018,102.0,109.0,99.0,13.4,1505.3,323.0,-0.7,1.8,2470.162,13.33,0.024,194.0
2019-06-24T04:28:30,42.805,6.029,0.016,-0.023,-0.022,105.0,108.0,101.0,13.4,1505.3,325.0,-0.7,1.8,2470.143,13.33,0.028,145.2
2019-06-24T04:31:31,42.805,6.029,0.013,-0.007,0.013,105.0,108.0,100.0,13.4,1505.3,326.4,-0.7,1.9,2470.144,13.33,0.014,118.3
2019-06-24T04:34:32,42.805,6.029,0.019,-0.007,0.028,104.0,108.0,100.0,13.4,1505.3,327.1,-0.7,1.8,2470.091,13.33,0.02,110.2
2019-06-24T04:37:33,42.805,6.029,0.001,-0.016,-0.03,105.0,109.0,101.0,13.3,1505.3,327.4,-0.7,1.9,2470.061,13.33,0.016,176.4
2019-06-24T04:40:34,42.805,6.029,-0.021,-0.017,-0.043,103.0,108.0,100.0,13.3,1505.3,327.5,-0.7,1.8,2470.079,13.33,0.027,231.0
2019-06-24T04:43:35,42.805,6.029,0.002,-0.017,-0.044,103.0,108.0,100.0,13.4,1505.3,325.8,-0.7,1.8,2470.081,13.33,0.017,173.3
2019-06-24T04:46:36,42.805,6.029,0.018,0.001,0.011,105.0,107.0,99.0,13.3,1505.3,324.8,-0.7,1.8,2470.089,13.33,0.018,86.8
2019-06-24T04:49:37,42.805,6.029,0.028,-0.029,-0.024,103.0,109.0,99.0,13.4,1505.3,326.6,-0.7,1.8,2470.133,13.33,0.04,136.0
2019-06-24T04:52:38,42.805,6.029,-0.006,0.004,-0.022,103.0,108.0,99.0,13.4,1505.3,323.0,-0.7,1.8,2470.101,13.33,0.007,303.7
2019-06-24T04:55:39,42.805,6.029,-0.011,-0.01,-0.059,104.0,108.0,100.0,13.4,1505.3,323.5,-0.7,1.8,2470.091,13.33,0.014,227.7
2019-06-24T04:58:40,42.805,6.029,-0.001,-0.012,-0.034,103.0,106.0,100.0,13.4,1505.3,325.7,-0.7,1.8,2470.082,13.33,0.012,184.8
2019-06-24T05:01:41,42.805,6.029,-0.031,-0.015,-0.049,102.0,107.0,100.0,13.3,1505.3,324.4,-0.7,1.8,2470.099,13.33,0.034,244.2
2019-06-24T05:04:42,42.805,6.029,-0.017,-0.005,-0.023,103.0,107.0,100.0,13.3,1505.3,326.4,-0.7,1.8,2470.071,13.33,0.017,253.6
2019-06-24T05:07:43,42.805,6.029,-0.014,-0.018,-0.033,104.0,107.0,99.0,13.4,1505.3,325.7,-0.8,1.9,2470.123,13.33,0.022,217.9
2019-06-24T05:10:44,42.805,6.029,-0.003,-0.002,-0.044,102.0,106.0,98.0,13.3,1505.3,324.2,-0.7,1.8,2470.107,13.33,0.003,236.3
2019-06-24T05:13:45,42.805,6.029,-0.041,-0.004,-0.059,103.0,106.0,99.0,13.4,1505.3,325.0,-0.7,1.8,2470.11,13.33,0.041,264.4
2019-06-24T05:16:46,42.805,6.029,0.012,-0.007,-0.011,104.0,108.0,100.0,13.4,1505.3,327.7,-0.7,1.8,2470.035,13.33,0.013,120.3
2019-06-24T05:19:47,42.805,6.029,-0.035,-0.018,-0.056,103.0,107.0,100.0,13.3,1505.3,326.3,-0.7,1.8,2470.126,13.33,0.039,242.8
2019-06-24T05:22:48,42.805,6.029,0.0,-0.023,-0.035,102.0,106.0,100.0,13.4,1505.3,325.1,-0.8,1.8,2470.082,13.33,0.023,180.0
2019-06-24T05:25:49,42.805,6.029,-0.025,-0.007,-0.029,103.0,106.0,99.0,13.3,1505.3,324.5,-0.7,1.8,2470.058,13.33,0.025,254.4
2019-06-24T05:28:50,42.805,6.029,0.01,-0.01,-0.014,104.0,107.0,99.0,13.4,1505.3,324.8,-0.7,1.9,2470.06,13.33,0.014,135.0
2019-06-24T05:31:51,42.805,6.029,-0.007,-0.004,-0.024,105.0,107.0,100.0,13.4,1505.3,323.1,-0.7,1.8,2470.112,13.33,0.008,240.3
2019-06-24T05:34:52,42.805,6.029,0.017,-0.013,-0.011,104.0,108.0,99.0,13.4,1505.3,323.9,-0.8,1.8,2470.071,13.33,0.021,127.4
2019-06-24T05:37:53,42.805,6.029,-0.009,-0.018,0.004,104.0,108.0,99.0,13.4,1505.3,326.2,-0.7,1.9,2470.094,13.33,0.02,206.6
2019-06-24T05:40:54,42.805,6.029,0.006,0.001,-0.028,104.0,107.0,100.0,13.4,1505.3,326.8,-0.7,1.9,2470.084,13.33,0.006,80.5
2019-06-24T05:43:55,42.805,6.029,-0.002,-0.034,-0.057,102.0,110.0,101.0,13.4,1505.3,325.8,-0.7,1.8,2470.082,13.33,0.034,183.4
2019-06-24T05:46:56,42.805,6.029,-0.016,-0.03,-0.042,104.0,108.0,99.0,13.4,1505.3,326.0,-0.7,1.8,2470.094,13.33,0.034,208.1
2019-06-24T05:49:57,42.805,6.029,-0.001,-0.018,-0.024,102.0,108.0,98.0,13.4,1505.3,326.4,-0.7,1.9,2470.074,13.33,0.018,183.2
2019-06-24T05:52:58,42.805,6.029,-0.038,-0.031,-0.047,104.0,107.0,99.0,13.4,1505.3,327.1,-0.7,1.8,2470.116,13.33,0.049,230.8
2019-06-24T05:55:59,42.805,6.029,0.007,-0.025,-0.037,104.0,108.0,100.0,13.4,1505.3,324.4,-0.7,1.9,2470.123,13.33,0.025,164.4
2019-06-24T05:59:00,42.805,6.029,-0.023,-0.001,-0.043,104.0,106.0,100.0,13.4,1505.3,326.3,-0.7,1.8,2470.042,13.33,0.023,267.5
2019-06-24T06:02:01,42.805,6.029,0.012,-0.009,-0.023,104.0,107.0,100.0,13.4,1505.3,326.9,-0.7,1.8,2470.086,13.33,0.015,126.9
2019-06-24T06:05:02,42.805,6.029,-0.001,-0.022,-0.031,104.0,108.0,101.0,13.4,1505.3,325.3,-0.7,1.8,2470.054,13.33,0.022,182.6
2019-06-24T06:08:03,42.805,6.029,-0.033,-0.037,-0.038,102.0,108.0,101.0,13.3,1505.3,324.9,-0.7,1.9,2470.102,13.33,0.049,221.7
2019-06-24T06:11:04,42.805,6.029,-0.004,-0.01,-0.028,102.0,107.0,101.0,13.4,1505.3,324.9,-0.7,1.8,2470.048,13.33,0.01,201.8
2019-06-24T06:14:05,42.805,6.029,-0.015,-0.005,-0.053,103.0,107.0,100.0,13.4,1505.3,322.8,-0.7,1.8,2470.05,13.33,0.015,251.6
2019-06-24T06:17:06,42.805,6.029,-0.016,-0.01,-0.04,105.0,108.0,101.0,13.4,1505.3,323.3,-0.7,1.8,2470.074,13.33,0.018,238.0
2019-06-24T06:20:07,42.805,6.029,-0.003,-0.012,-0.024,103.0,108.0,99.0,13.4,1505.3,326.6,-0.7,1.9,2470.066,13.33,0.012,194.0
2019-06-24T06:23:08,42.805,6.029,-0.029,-0.03,-0.052,102.0,106.0,98.0,13.4,1505.3,326.8,-0.7,1.9,2470.118,13.33,0.041,224.0
2019-06-24T06:26:09,42.805,6.029,-0.015,-0.028,-0.045,103.0,105.0,99.0,13.3,1505.3,322.7,-0.8,1.9,2470.108,13.33,0.031,208.2
2019-06-24T06:29:10,42.805,6.029,-0.013,-0.025,-0.024,102.0,106.0,98.0,13.3,1505.3,324.4,-0.7,1.8,2470.09,13.33,0.028,207.5
2019-06-24T06:32:11,42.805,6.029,-0.013,-0.028,-0.035,104.0,105.0,98.0,13.4,1505.3,327.3,-0.7,1.9,2470.046,13.33,0.03,204.9
2019-06-24T06:35:12,42.805,6.029,-0.042,-0.024,-0.061,101.0,105.0,97.0,13.4,1505.3,326.8,-0.7,1.8,2470.043,13.33,0.048,240.3
2019-06-24T06:38:13,42.805,6.029,-0.003,-0.004,-0.023,101.0,106.0,98.0,13.4,1505.3,325.3,-0.7,1.8,2470.025,13.33,0.005,216.9
2019-06-24T06:41:14,42.805,6.029,0.019,-0.004,-0.036,101.0,105.0,99.0,13.4,1505.3,327.4,-0.7,1.8,2470.084,13.33,0.019,101.9
2019-06-24T06:44:15,42.805,6.029,0.012,-0.014,0.036,105.0,106.0,100.0,13.3,1505.3,323.1,-0.7,1.8,2470.058,13.33,0.018,139.4
2019-06-24T06:47:16,42.805,6.029,0.015,-0.008,-0.019,105.0,109.0,100.0,13.4,1505.3,324.8,-0.7,1.8,2470.043,13.33,0.017,118.1
2019-06-24T06:50:17,42.805,6.029,0.045,-0.011,0.0,102.0,107.0,99.0,13.3,1505.3,327.9,-0.7,1.8,2470.062,13.33,0.046,103.7
2019-06-24T06:53:18,42.805,6.029,0.013,-0.018,0.002,103.0,109.0,100.0,13.4,1505.3,322.8,-0.7,1.8,2470.067,13.33,0.022,144.2
2019-06-24T06:56:19,42.805,6.029,-0.024,0.001,-0.02,102.0,107.0,98.0,13.3,1505.3,327.0,-0.7,1.8,2470.042,13.33,0.024,272.4
2019-06-24T06:59:20,42.805,6.029,-0.039,-0.023,-0.083,102.0,106.0,100.0,13.4,1505.3,324.0,-0.8,1.9,2470.091,13.33,0.045,239.5
2019-06-24T07:02:21,42.805,6.029,-0.013,-0.019,-0.065,104.0,106.0,99.0,13.4,1505.3,328.5,-0.8,1.8,2470.055,13.33,0.023,214.4
2019-06-24T07:05:22,42.805,6.029,-0.033,-0.023,-0.053,103.0,107.0,99.0,13.3,1505.3,323.1,-0.7,1.8,2470.077,13.33,0.04,235.1
2019-06-24T07:08:23,42.805,6.029,-0.029,0.006,-0.03,101.0,107.0,100.0,13.3,1505.3,323.6,-0.7,1.8,2469.997,13.33,0.029,281.7
2019-06-24T07:11:24,42.805,6.029,-0.006,0.0,-0.013,104.0,107.0,101.0,13.4,1505.3,325.9,-0.7,1.8,2470.064,13.33,0.006,270.0
2019-06-24T07:14:25,42.805,6.029,0.016,0.004,-0.021,103.0,107.0,98.0,13.4,1505.3,327.8,-0.7,1.9,2470.053,13.33,0.016,76.0
2019-06-24T07:17:26,42.805,6.029,0.023,-0.02,-0.025,102.0,107.0,99.0,13.4,1505.3,323.2,-0.7,1.8,2470.07,13.33,0.03,131.0
2019-06-24T07:20:27,42.805,6.029,-0.017,-0.026,-0.1,103.0,108.0,101.0,13.3,1505.3,326.5,-0.7,1.8,2470.047,13.33,0.031,213.2
2019-06-24T07:23:28,42.805,6.029,-0.023,-0.032,-0.066,102.0,106.0,101.0,13.3,1505.3,326.3,-0.7,1.9,2470.009,13.33,0.039,215.7
2019-06-24T07:26:29,42.805,6.029,-0.032,-0.025,-0.07,104.0,106.0,99.0,13.4,1505.3,326.5,-0.7,1.8,2470.093,13.33,0.04,232.0
2019-06-24T07:29:30,42.805,6.029,0.007,-0.01,-0.013,102.0,107.0,100.0,13.3,1505.3,324.7,-0.7,1.9,2470.073,13.33,0.012,145.0
2019-06-24T07:32:31,42.805,6.029,0.0,-0.017,-0.031,103.0,105.0,98.0,13.3,1505.3,327.9,-0.7,1.9,2470.08,13.33,0.017,180.0
2019-06-24T07:35:32,42.805,6.029,-0.029,-0.019,-0.05,102.0,106.0,100.0,13.3,1505.3,325.0,-0.7,1.8,2470.051,13.33,0.034,236.8
2019-06-24T07:38:33,42.805,6.029,-0.031,0.007,0.003,102.0,107.0,100.0,13.3,1505.3,326.6,-0.7,1.9,2470.061,13.33,0.031,282.7
2019-06-24T07:41:34,42.805,6.029,0.013,-0.025,-0.027,103.0,107.0,99.0,13.3,1505.3,328.2,-0.7,1.8,2470.076,13.33,0.028,152.5
2019-06-24T07:44:35,42.805,6.029,-0.037,-0.022,-0.083,103.0,107.0,100.0,13.4,1505.3,323.3,-0.7,1.8,2470.069,13.33,0.043,239.3
2019-06-24T07:47:36,42.805,6.029,-0.021,-0.015,-0.014,105.0,108.0,98.0,13.4,1505.3,326.2,-0.7,1.9,2470.049,13.33,0.025,234.5
2019-06-24T07:50:37,42.805,6.029,-0.028,-0.021,-0.05,104.0,106.0,100.0,13.4,1505.3,322.9,-0.7,1.8,2470.077,13.33,0.035,233.1
2019-06-24T07:53:38,42.805,6.029,0.017,-0.013,-0.039,104.0,106.0,98.0,13.3,1505.3,326.0,-0.7,1.8,2470.027,13.33,0.021,127.4
2019-06-24T07:56:39,42.805,6.029,0.006,-0.021,-0.002,103.0,106.0,99.0,13.4,1505.3,327.3,-0.8,1.8,2470.038,13.33,0.021,164.1
2019-06-24T07:59:40,42.805,6.029,-0.018,-0.021,-0.026,104.0,107.0,99.0,13.3,1505.3,326.6,-0.7,1.9,2470.081,13.33,0.027,220.6
2019-06-24T08:02:41,42.805,6.029,-0.02,-0.038,-0.04,105.0,107.0,99.0,13.4,1505.3,328.0,-0.8,1.8,2470.076,13.33,0.042,207.8
2019-06-24T08:05:42,42.805,6.029,-0.028,-0.013,-0.07,102.0,106.0,100.0,13.4,1505.3,323.6,-0.8,1.8,2470.073,13.33,0.03,245.1
2019-06-24T08:08:43,42.805,6.029,-0.014,-0.013,-0.058,104.0,107.0,99.0,13.4,1505.3,326.5,-0.7,1.8,2470.063,13.33,0.019,227.1
2019-06-24T08:11:44,42.805,6.029,-0.007,-0.004,-0.025,104.0,106.0,99.0,13.3,1505.3,326.2,-0.7,1.8,2470.07,13.33,0.008,240.3
2019-06-24T08:14:45,42.805,6.029,-0.013,-0.024,-0.043,102.0,108.0,101.0,13.3,1505.3,326.6,-0.7,1.9,2470.093,13.33,0.027,208.4
2019-06-24T08:17:46,42.805,6.029,-0.04,-0.013,-0.042,102.0,107.0,100.0,13.4,1505.3,325.7,-0.7,1.8,2470.066,13.33,0.042,252.0
2019-06-24T08:20:47,42.805,6.029,-0.02,-0.018,-0.026,103.0,107.0,100.0,13.4,1505.3,326.9,-0.8,1.8,2470.088,13.33,0.026,228.0
2019-06-24T08:23:48,42.805,6.029,0.029,-0.011,-0.001,103.0,107.0,100.0,13.4,1505.3,322.9,-0.7,1.8,2470.07,13.33,0.031,110.8
2019-06-24T08:26:49,42.805,6.029,-0.013,-0.019,-0.039,102.0,107.0,99.0,13.4,1505.3,326.3,-0.8,1.8,2470.066,13.33,0.023,214.4
2019-06-24T08:29:50,42.805,6.029,0.005,-0.012,-0.003,103.0,107.0,100.0,13.4,1505.3,326.9,-0.7,1.9,2470.102,13.33,0.013,157.4
2019-06-24T08:32:51,42.805,6.029,-0.003,-0.01,-0.023,103.0,106.0,100.0,13.4,1505.3,327.7,-0.7,1.8,2470.06,13.33,0.01,196.7
2019-06-24T08:35:52,42.805,6.029,-0.003,-0.023,-0.019,103.0,106.0,100.0,13.3,1505.3,323.8,-0.7,1.8,2470.091,13.33,0.023,187.4
2019-06-24T08:38:53,42.805,6.029,0.016,-0.01,0.012,103.0,108.0,101.0,13.4,1505.3,324.5,-0.7,1.8,2470.042,13.33,0.018,122.0
2019-06-24T08:41:54,42.805,6.029,-0.021,-0.022,-0.01,104.0,108.0,100.0,13.3,1505.3,323.5,-0.7,1.9,2470.093,13.33,0.03,223.7
2019-06-24T08:44:55,42.805,6.029,0.008,-0.027,-0.01,106.0,108.0,100.0,13.4,1505.3,324.4,-0.7,1.8,2470.081,13.33,0.028,163.5
2019-06-24T08:47:56,42.805,6.029,-0.008,-0.015,-0.021,103.0,109.0,100.0,13.4,1505.3,322.8,-0.7,1.9,2470.076,13.33,0.017,208.1
2019-06-24T08:50:57,42.805,6.029,0.014,0.021,0.023,104.0,107.0,100.0,13.4,1505.3,326.8,-0.7,1.9,2470.076,13.33,0.025,33.7
2019-06-24T08:53:58,42.805,6.029,0.008,-0.01,0.018,104.0,108.0,101.0,13.3,1505.3,327.0,-0.7,1.8,2470.093,13.33,0.012,141.3
2019-06-24T08:56:59,42.805,6.029,0.019,-0.006,0.045,104.0,109.0,99.0,13.4,1505.3,324.2,-0.8,1.9,2470.046,13.33,0.019,107.5
2019-06-24T09:00:00,42.805,6.029,0.014,0.001,-0.005,103.0,109.0,100.0,13.3,1505.3,324.9,-0.7,1.8,2470.058,13.33,0.014,85.9
2019-06-24T09:03:01,42.805,6.029,0.025,0.005,0.023,103.0,108.0,101.0,13.4,1505.3,323.0,-0.7,1.9,2470.074,13.33,0.025,78.7
2019-06-24T09:06:02,42.805,6.029,0.006,-0.032,-0.038,104.0,106.0,100.0,13.4,1505.3,326.2,-0.7,1.8,2470.059,13.33,0.032,169.4
2019-06-24T09:09:03,42.805,6.029,-0.006,-0.026,-0.017,103.0,107.0,100.0,13.4,1505.3,327.8,-0.7,1.9,2470.042,13.33,0.026,193.0
2019-06-24T09:12:04,42.805,6.029,-0.003,-0.011,-0.015,103.0,107.0,100.0,13.4,1505.3,326.3,-0.7,1.8,2470.075,13.33,0.011,195.3
2019-06-24T09:15:05,42.805,6.029,0.021,-0.009,0.003,103.0,108.0,100.0,13.3,1505.3,327.4,-0.7,1.9,2470.062,13.33,0.022,113.2
2019-06-24T09:18:06,42.805,6.029,0.03,0.017,0.013,101.0,106.0,100.0,13.4,1505.3,323.9,-0.7,1.8,2470.065,13.33,0.034,60.5
2019-06-24T09:21:07,42.805,6.029,0.055,-0.005,0.032,102.0,107.0,98.0,13.4,1505.3,327.6,-0.7,1.8,2470.108,13.33,0.055,95.2
2019-06-24T09:24:08,42.805,6.029,0.047,-0.007,0.038,101.0,105.0,99.0,13.3,1505.3,326.5,-0.7,1.8,2470.076,13.33,0.047,98.5
2019-06-24T09:27:09,42.805,6.029,0.028,-0.008,-0.003,103.0,105.0,100.0,13.4,1505.3,324.9,-0.7,1.8,2470.133,13.33,0.029,105.9
2019-06-24T09:30:10,42.805,6.029,0.031,-0.035,0.028,102.0,108.0,99.0,13.4,1505.3,327.0,-0.7,1.8,2470.146,13.33,0.046,138.5
2019-06-24T09:33:11,42.805,6.029,-0.001,-0.009,-0.008,103.0,106.0,100.0,13.4,1505.3,325.2,-0.7,1.8,2470.098,13.33,0.009,186.3
2019-06-24T09:36:12,42.805,6.029,-0.008,0.0,-0.019,104.0,107.0,98.0,13.3,1505.3,323.8,-0.7,1.9,2470.127,13.33,0.008,270.0